Year,Month,Day,Hour,Minute,Value (Times are PST for insolation in W/m^2)
2019,11,02,00,00,0.00
2019,11,02,00,01,0.00
2019,11,02,00,02,0.00
2019,11,02,00,03,0.00
2019,11,02,00,04,0.00
2019,11,02,00,05,0.00
2019,11,02,00,06,0.00
2019,11,02,00,07,0.00
2019,11,02,00,08,0.00
2019,11,02,00,09,0.00
2019,11,02,00,10,0.00
2019,11,02,00,11,0.00
2019,11,02,00,12,0.00
2019,11,02,00,13,0.00
2019,11,02,00,14,0.00
2019,11,02,00,15,0.00
2019,11,02,00,16,0.00
2019,11,02,00,17,0.00
2019,11,02,00,18,0.00
2019,11,02,00,19,0.00
2019,11,02,00,20,0.00
2019,11,02,00,21,0.00
2019,11,02,00,22,0.00
2019,11,02,00,23,0.00
2019,11,02,00,24,0.00
2019,11,02,00,25,0.00
2019,11,02,00,26,0.00
2019,11,02,00,27,0.00
2019,11,02,00,28,0.00
2019,11,02,00,29,0.00
2019,11,02,00,30,0.00
2019,11,02,00,31,0.00
2019,11,02,00,32,0.00
2019,11,02,00,33,0.00
2019,11,02,00,34,0.00
2019,11,02,00,35,0.00
2019,11,02,00,36,0.00
2019,11,02,00,37,0.00
2019,11,02,00,38,0.00
2019,11,02,00,39,0.00
2019,11,02,00,40,0.00
2019,11,02,00,41,0.00
2019,11,02,00,42,0.00
2019,11,02,00,43,0.00
2019,11,02,00,44,0.00
2019,11,02,00,45,0.00
2019,11,02,00,46,0.00
2019,11,02,00,47,0.00
2019,11,02,00,48,0.00
2019,11,02,00,49,0.00
2019,11,02,00,50,0.00
2019,11,02,00,51,0.00
2019,11,02,00,52,0.00
2019,11,02,00,53,0.00
2019,11,02,00,54,0.00
2019,11,02,00,55,0.00
2019,11,02,00,56,0.00
2019,11,02,00,57,0.00
2019,11,02,00,58,0.00
2019,11,02,00,59,0.00
2019,11,02,01,00,0.00
2019,11,02,01,01,0.00
2019,11,02,01,02,0.00
2019,11,02,01,03,0.00
2019,11,02,01,04,0.00
2019,11,02,01,05,0.00
2019,11,02,01,06,0.00
2019,11,02,01,07,0.00
2019,11,02,01,08,0.00
2019,11,02,01,09,0.00
2019,11,02,01,10,0.00
2019,11,02,01,11,0.00
2019,11,02,01,12,0.00
2019,11,02,01,13,0.00
2019,11,02,01,14,0.00
2019,11,02,01,15,0.00
2019,11,02,01,16,0.00
2019,11,02,01,17,0.00
2019,11,02,01,18,0.00
2019,11,02,01,19,0.00
2019,11,02,01,20,0.00
2019,11,02,01,21,0.00
2019,11,02,01,22,0.00
2019,11,02,01,23,0.00
2019,11,02,01,24,0.00
2019,11,02,01,25,0.00
2019,11,02,01,26,0.00
2019,11,02,01,27,0.00
2019,11,02,01,28,0.00
2019,11,02,01,29,0.00
2019,11,02,01,30,0.00
2019,11,02,01,31,0.00
2019,11,02,01,32,0.00
2019,11,02,01,33,0.00
2019,11,02,01,34,0.00
2019,11,02,01,35,0.00
2019,11,02,01,36,0.00
2019,11,02,01,37,0.00
2019,11,02,01,38,0.00
2019,11,02,01,39,0.00
2019,11,02,01,40,0.00
2019,11,02,01,41,0.00
2019,11,02,01,42,0.00
2019,11,02,01,43,0.00
2019,11,02,01,44,0.00
2019,11,02,01,45,0.00
2019,11,02,01,46,0.00
2019,11,02,01,47,0.00
2019,11,02,01,48,0.00
2019,11,02,01,49,0.00
2019,11,02,01,50,0.00
2019,11,02,01,51,0.00
2019,11,02,01,52,0.00
2019,11,02,01,53,0.00
2019,11,02,01,54,0.00
2019,11,02,01,55,0.00
2019,11,02,01,56,0.00
2019,11,02,01,57,0.00
2019,11,02,01,58,0.00
2019,11,02,01,59,0.00
2019,11,02,02,00,0.00
2019,11,02,02,01,0.00
2019,11,02,02,02,0.00
2019,11,02,02,03,0.00
2019,11,02,02,04,0.00
2019,11,02,02,05,0.00
2019,11,02,02,06,0.00
2019,11,02,02,07,0.00
2019,11,02,02,08,0.00
2019,11,02,02,09,0.00
2019,11,02,02,10,0.00
2019,11,02,02,11,0.00
2019,11,02,02,12,0.00
2019,11,02,02,13,0.00
2019,11,02,02,14,0.00
2019,11,02,02,15,0.00
2019,11,02,02,16,0.00
2019,11,02,02,17,0.00
2019,11,02,02,18,0.00
2019,11,02,02,19,0.00
2019,11,02,02,20,0.00
2019,11,02,02,21,0.00
2019,11,02,02,22,0.00
2019,11,02,02,23,0.00
2019,11,02,02,24,0.00
2019,11,02,02,25,0.00
2019,11,02,02,26,0.00
2019,11,02,02,27,0.00
2019,11,02,02,28,0.00
2019,11,02,02,29,0.00
2019,11,02,02,30,0.00
2019,11,02,02,31,0.00
2019,11,02,02,32,0.00
2019,11,02,02,33,0.00
2019,11,02,02,34,0.00
2019,11,02,02,35,0.00
2019,11,02,02,36,0.00
2019,11,02,02,37,0.00
2019,11,02,02,38,0.00
2019,11,02,02,39,0.00
2019,11,02,02,40,0.00
2019,11,02,02,41,0.00
2019,11,02,02,42,0.00
2019,11,02,02,43,0.00
2019,11,02,02,44,0.00
2019,11,02,02,45,0.00
2019,11,02,02,46,0.00
2019,11,02,02,47,0.00
2019,11,02,02,48,0.00
2019,11,02,02,49,0.00
2019,11,02,02,50,0.00
2019,11,02,02,51,0.00
2019,11,02,02,52,0.00
2019,11,02,02,53,0.00
2019,11,02,02,54,0.00
2019,11,02,02,55,0.00
2019,11,02,02,56,0.00
2019,11,02,02,57,0.00
2019,11,02,02,58,0.00
2019,11,02,02,59,0.00
2019,11,02,03,00,0.00
2019,11,02,03,01,0.00
2019,11,02,03,02,0.00
2019,11,02,03,03,0.00
2019,11,02,03,04,0.00
2019,11,02,03,05,0.00
2019,11,02,03,06,0.00
2019,11,02,03,07,0.00
2019,11,02,03,08,0.00
2019,11,02,03,09,0.00
2019,11,02,03,10,0.00
2019,11,02,03,11,0.00
2019,11,02,03,12,0.00
2019,11,02,03,13,0.00
2019,11,02,03,14,0.00
2019,11,02,03,15,0.00
2019,11,02,03,16,0.00
2019,11,02,03,17,0.00
2019,11,02,03,18,0.00
2019,11,02,03,19,0.00
2019,11,02,03,20,0.00
2019,11,02,03,21,0.00
2019,11,02,03,22,0.00
2019,11,02,03,23,0.00
2019,11,02,03,24,0.00
2019,11,02,03,25,0.00
2019,11,02,03,26,0.00
2019,11,02,03,27,0.00
2019,11,02,03,28,0.00
2019,11,02,03,29,0.00
2019,11,02,03,30,0.00
2019,11,02,03,31,0.00
2019,11,02,03,32,0.00
2019,11,02,03,33,0.00
2019,11,02,03,34,0.00
2019,11,02,03,35,0.00
2019,11,02,03,36,0.00
2019,11,02,03,37,0.00
2019,11,02,03,38,0.00
2019,11,02,03,39,0.00
2019,11,02,03,40,0.00
2019,11,02,03,41,0.00
2019,11,02,03,42,0.00
2019,11,02,03,43,0.00
2019,11,02,03,44,0.00
2019,11,02,03,45,0.00
2019,11,02,03,46,0.00
2019,11,02,03,47,0.00
2019,11,02,03,48,0.00
2019,11,02,03,49,0.00
2019,11,02,03,50,0.00
2019,11,02,03,51,0.00
2019,11,02,03,52,0.00
2019,11,02,03,53,0.00
2019,11,02,03,54,0.00
2019,11,02,03,55,0.00
2019,11,02,03,56,0.00
2019,11,02,03,57,0.00
2019,11,02,03,58,0.00
2019,11,02,03,59,0.00
2019,11,02,04,00,0.00
2019,11,02,04,01,0.00
2019,11,02,04,02,0.00
2019,11,02,04,03,0.00
2019,11,02,04,04,0.00
2019,11,02,04,05,0.00
2019,11,02,04,06,0.00
2019,11,02,04,07,0.00
2019,11,02,04,08,0.00
2019,11,02,04,09,0.00
2019,11,02,04,10,0.00
2019,11,02,04,11,0.00
2019,11,02,04,12,0.00
2019,11,02,04,13,0.00
2019,11,02,04,14,0.00
2019,11,02,04,15,0.00
2019,11,02,04,16,0.00
2019,11,02,04,17,0.00
2019,11,02,04,18,0.00
2019,11,02,04,19,0.00
2019,11,02,04,20,0.00
2019,11,02,04,21,0.00
2019,11,02,04,22,0.00
2019,11,02,04,23,0.00
2019,11,02,04,24,0.00
2019,11,02,04,25,0.00
2019,11,02,04,26,0.00
2019,11,02,04,27,0.00
2019,11,02,04,28,0.00
2019,11,02,04,29,0.00
2019,11,02,04,30,0.00
2019,11,02,04,31,0.00
2019,11,02,04,32,0.00
2019,11,02,04,33,0.00
2019,11,02,04,34,0.00
2019,11,02,04,35,0.00
2019,11,02,04,36,0.00
2019,11,02,04,37,0.00
2019,11,02,04,38,0.00
2019,11,02,04,39,0.00
2019,11,02,04,40,0.00
2019,11,02,04,41,0.00
2019,11,02,04,42,0.00
2019,11,02,04,43,0.00
2019,11,02,04,44,0.00
2019,11,02,04,45,0.00
2019,11,02,04,46,0.00
2019,11,02,04,47,0.00
2019,11,02,04,48,0.00
2019,11,02,04,49,0.00
2019,11,02,04,50,0.00
2019,11,02,04,51,0.00
2019,11,02,04,52,0.00
2019,11,02,04,53,0.00
2019,11,02,04,54,0.00
2019,11,02,04,55,0.00
2019,11,02,04,56,0.00
2019,11,02,04,57,0.00
2019,11,02,04,58,0.00
2019,11,02,04,59,0.00
2019,11,02,05,00,0.00
2019,11,02,05,01,0.00
2019,11,02,05,02,0.00
2019,11,02,05,03,0.00
2019,11,02,05,04,0.00
2019,11,02,05,05,0.00
2019,11,02,05,06,0.00
2019,11,02,05,07,0.00
2019,11,02,05,08,0.00
2019,11,02,05,09,0.00
2019,11,02,05,10,0.00
2019,11,02,05,11,0.00
2019,11,02,05,12,0.00
2019,11,02,05,13,0.00
2019,11,02,05,14,0.00
2019,11,02,05,15,0.00
2019,11,02,05,16,0.00
2019,11,02,05,17,0.00
2019,11,02,05,18,0.00
2019,11,02,05,19,0.00
2019,11,02,05,20,0.00
2019,11,02,05,21,0.00
2019,11,02,05,22,0.00
2019,11,02,05,23,0.00
2019,11,02,05,24,0.00
2019,11,02,05,25,0.00
2019,11,02,05,26,0.00
2019,11,02,05,27,0.00
2019,11,02,05,28,0.00
2019,11,02,05,29,0.00
2019,11,02,05,30,0.00
2019,11,02,05,31,0.00
2019,11,02,05,32,0.00
2019,11,02,05,33,0.00
2019,11,02,05,34,0.00
2019,11,02,05,35,0.00
2019,11,02,05,36,0.00
2019,11,02,05,37,0.00
2019,11,02,05,38,0.00
2019,11,02,05,39,0.00
2019,11,02,05,40,0.00
2019,11,02,05,41,0.00
2019,11,02,05,42,0.00
2019,11,02,05,43,0.00
2019,11,02,05,44,0.00
2019,11,02,05,45,0.00
2019,11,02,05,46,0.00
2019,11,02,05,47,0.00
2019,11,02,05,48,0.00
2019,11,02,05,49,0.00
2019,11,02,05,50,0.00
2019,11,02,05,51,0.00
2019,11,02,05,52,0.00
2019,11,02,05,53,0.00
2019,11,02,05,54,0.00
2019,11,02,05,55,0.00
2019,11,02,05,56,0.00
2019,11,02,05,57,0.00
2019,11,02,05,58,0.00
2019,11,02,05,59,0.00
2019,11,02,06,00,0.00
2019,11,02,06,01,0.00
2019,11,02,06,02,0.00
2019,11,02,06,03,0.00
2019,11,02,06,04,0.00
2019,11,02,06,05,0.00
2019,11,02,06,06,0.00
2019,11,02,06,07,0.00
2019,11,02,06,08,0.00
2019,11,02,06,09,0.00
2019,11,02,06,10,0.00
2019,11,02,06,11,0.00
2019,11,02,06,12,0.00
2019,11,02,06,13,0.00
2019,11,02,06,14,0.00
2019,11,02,06,15,0.00
2019,11,02,06,16,0.00
2019,11,02,06,17,0.00
2019,11,02,06,18,0.00
2019,11,02,06,19,0.00
2019,11,02,06,20,0.00
2019,11,02,06,21,0.00
2019,11,02,06,22,0.00
2019,11,02,06,23,0.00
2019,11,02,06,24,0.00
2019,11,02,06,25,0.00
2019,11,02,06,26,0.00
2019,11,02,06,27,0.00
2019,11,02,06,28,0.00
2019,11,02,06,29,0.00
2019,11,02,06,30,0.00
2019,11,02,06,31,0.00
2019,11,02,06,32,0.00
2019,11,02,06,33,0.00
2019,11,02,06,34,0.00
2019,11,02,06,35,0.00
2019,11,02,06,36,0.00
2019,11,02,06,37,0.00
2019,11,02,06,38,0.00
2019,11,02,06,39,0.00
2019,11,02,06,40,0.00
2019,11,02,06,41,0.00
2019,11,02,06,42,0.00
2019,11,02,06,43,0.00
2019,11,02,06,44,0.00
2019,11,02,06,45,0.00
2019,11,02,06,46,0.00
2019,11,02,06,47,0.00
2019,11,02,06,48,0.00
2019,11,02,06,49,0.00
2019,11,02,06,50,0.00
2019,11,02,06,51,0.00
2019,11,02,06,52,0.00
2019,11,02,06,53,0.00
2019,11,02,06,54,0.00
2019,11,02,06,55,0.00
2019,11,02,06,56,0.00
2019,11,02,06,57,0.00
2019,11,02,06,58,0.00
2019,11,02,06,59,0.00
2019,11,02,07,00,0.00
2019,11,02,07,01,0.00
2019,11,02,07,02,0.00
2019,11,02,07,03,0.00
2019,11,02,07,04,0.00
2019,11,02,07,05,0.00
2019,11,02,07,06,0.00
2019,11,02,07,07,0.00
2019,11,02,07,08,0.00
2019,11,02,07,09,0.00
2019,11,02,07,10,0.00
2019,11,02,07,11,0.00
2019,11,02,07,12,0.00
2019,11,02,07,13,0.00
2019,11,02,07,14,0.00
2019,11,02,07,15,0.00
2019,11,02,07,16,0.00
2019,11,02,07,17,0.00
2019,11,02,07,18,0.00
2019,11,02,07,19,0.00
2019,11,02,07,20,0.00
2019,11,02,07,21,0.00
2019,11,02,07,22,0.00
2019,11,02,07,23,0.00
2019,11,02,07,24,0.00
2019,11,02,07,25,0.00
2019,11,02,07,26,0.00
2019,11,02,07,27,0.00
2019,11,02,07,28,0.00
2019,11,02,07,29,0.00
2019,11,02,07,30,0.00
2019,11,02,07,31,0.00
2019,11,02,07,32,0.00
2019,11,02,07,33,0.00
2019,11,02,07,34,0.00
2019,11,02,07,35,0.00
2019,11,02,07,36,0.00
2019,11,02,07,37,0.00
2019,11,02,07,38,0.00
2019,11,02,07,39,0.00
2019,11,02,07,40,0.00
2019,11,02,07,41,0.00
2019,11,02,07,42,0.00
2019,11,02,07,43,0.00
2019,11,02,07,44,0.00
2019,11,02,07,45,0.00
2019,11,02,07,46,0.00
2019,11,02,07,47,0.00
2019,11,02,07,48,0.00
2019,11,02,07,49,0.00
2019,11,02,07,50,0.00
2019,11,02,07,51,0.00
2019,11,02,07,52,0.00
2019,11,02,07,53,0.00
2019,11,02,07,54,0.00
2019,11,02,07,55,0.00
2019,11,02,07,56,0.00
2019,11,02,07,57,0.00
2019,11,02,07,58,0.00
2019,11,02,07,59,0.00
2019,11,02,08,00,0.00
2019,11,02,08,01,0.00
2019,11,02,08,02,0.00
2019,11,02,08,03,0.00
2019,11,02,08,04,0.00
2019,11,02,08,05,0.00
2019,11,02,08,06,0.00
2019,11,02,08,07,0.00
2019,11,02,08,08,0.00
2019,11,02,08,09,0.00
2019,11,02,08,10,0.00
2019,11,02,08,11,0.00
2019,11,02,08,12,0.60
2019,11,02,08,13,5.00
2019,11,02,08,14,5.00
2019,11,02,08,15,5.00
2019,11,02,08,16,5.00
2019,11,02,08,17,6.50
2019,11,02,08,18,7.00
2019,11,02,08,19,7.00
2019,11,02,08,20,7.50
2019,11,02,08,21,9.00
2019,11,02,08,22,9.00
2019,11,02,08,23,10.30
2019,11,02,08,24,11.00
2019,11,02,08,25,11.90
2019,11,02,08,26,12.00
2019,11,02,08,27,12.60
2019,11,02,08,28,14.00
2019,11,02,08,29,14.00
2019,11,02,08,30,15.30
2019,11,02,08,31,16.00
2019,11,02,08,32,16.00
2019,11,02,08,33,16.00
2019,11,02,08,34,16.60
2019,11,02,08,35,18.40
2019,11,02,08,36,19.00
2019,11,02,08,37,19.00
2019,11,02,08,38,18.20
2019,11,02,08,39,19.00
2019,11,02,08,40,21.00
2019,11,02,08,41,21.00
2019,11,02,08,42,20.20
2019,11,02,08,43,19.00
2019,11,02,08,44,20.30
2019,11,02,08,45,21.00
2019,11,02,08,46,21.00
2019,11,02,08,47,21.30
2019,11,02,08,48,23.50
2019,11,02,08,49,25.00
2019,11,02,08,50,25.00
2019,11,02,08,51,25.00
2019,11,02,08,52,25.00
2019,11,02,08,53,25.00
2019,11,02,08,54,25.10
2019,11,02,08,55,26.00
2019,11,02,08,56,26.00
2019,11,02,08,57,26.00
2019,11,02,08,58,26.00
2019,11,02,08,59,27.50
2019,11,02,09,00,26.20
2019,11,02,09,01,25.90
2019,11,02,09,02,25.20
2019,11,02,09,03,26.00
2019,11,02,09,04,27.00
2019,11,02,09,05,30.60
2019,11,02,09,06,35.90
2019,11,02,09,07,41.30
2019,11,02,09,08,41.70
2019,11,02,09,09,40.50
2019,11,02,09,10,42.80
2019,11,02,09,11,41.30
2019,11,02,09,12,37.70
2019,11,02,09,13,38.50
2019,11,02,09,14,43.40
2019,11,02,09,15,60.00
2019,11,02,09,16,72.00
2019,11,02,09,17,71.30
2019,11,02,09,18,69.50
2019,11,02,09,19,62.10
2019,11,02,09,20,54.20
2019,11,02,09,21,51.30
2019,11,02,09,22,53.60
2019,11,02,09,23,59.20
2019,11,02,09,24,64.60
2019,11,02,09,25,68.00
2019,11,02,09,26,70.80
2019,11,02,09,27,75.00
2019,11,02,09,28,69.70
2019,11,02,09,29,66.80
2019,11,02,09,30,64.50
2019,11,02,09,31,63.80
2019,11,02,09,32,65.00
2019,11,02,09,33,63.10
2019,11,02,09,34,60.50
2019,11,02,09,35,62.60
2019,11,02,09,36,59.40
2019,11,02,09,37,57.10
2019,11,02,09,38,59.30
2019,11,02,09,39,54.50
2019,11,02,09,40,47.80
2019,11,02,09,41,42.90
2019,11,02,09,42,42.00
2019,11,02,09,43,49.30
2019,11,02,09,44,52.80
2019,11,02,09,45,54.50
2019,11,02,09,46,48.00
2019,11,02,09,47,49.50
2019,11,02,09,48,52.50
2019,11,02,09,49,53.00
2019,11,02,09,50,47.00
2019,11,02,09,51,47.50
2019,11,02,09,52,54.10
2019,11,02,09,53,62.50
2019,11,02,09,54,64.30
2019,11,02,09,55,65.00
2019,11,02,09,56,60.60
2019,11,02,09,57,66.30
2019,11,02,09,58,77.50
2019,11,02,09,59,90.60
2019,11,02,10,00,95.00
2019,11,02,10,01,95.00
2019,11,02,10,02,95.00
2019,11,02,10,03,80.70
2019,11,02,10,04,66.70
2019,11,02,10,05,65.50
2019,11,02,10,06,66.20
2019,11,02,10,07,67.50
2019,11,02,10,08,69.40
2019,11,02,10,09,66.00
2019,11,02,10,10,65.00
2019,11,02,10,11,58.30
2019,11,02,10,12,60.80
2019,11,02,10,13,64.60
2019,11,02,10,14,63.40
2019,11,02,10,15,54.20
2019,11,02,10,16,42.00
2019,11,02,10,17,32.80
2019,11,02,10,18,32.40
2019,11,02,10,19,36.40
2019,11,02,10,20,39.60
2019,11,02,10,21,34.50
2019,11,02,10,22,30.00
2019,11,02,10,23,31.50
2019,11,02,10,24,32.40
2019,11,02,10,25,41.40
2019,11,02,10,26,36.50
2019,11,02,10,27,35.00
2019,11,02,10,28,34.00
2019,11,02,10,29,33.00
2019,11,02,10,30,34.50
2019,11,02,10,31,35.00
2019,11,02,10,32,37.00
2019,11,02,10,33,37.00
2019,11,02,10,34,37.00
2019,11,02,10,35,36.00
2019,11,02,10,36,35.00
2019,11,02,10,37,35.00
2019,11,02,10,38,35.10
2019,11,02,10,39,37.30
2019,11,02,10,40,39.80
2019,11,02,10,41,37.50
2019,11,02,10,42,37.00
2019,11,02,10,43,39.00
2019,11,02,10,44,37.50
2019,11,02,10,45,38.80
2019,11,02,10,46,38.70
2019,11,02,10,47,37.00
2019,11,02,10,48,36.30
2019,11,02,10,49,35.00
2019,11,02,10,50,35.00
2019,11,02,10,51,35.00
2019,11,02,10,52,35.00
2019,11,02,10,53,36.20
2019,11,02,10,54,46.80
2019,11,02,10,55,47.10
2019,11,02,10,56,40.50
2019,11,02,10,57,35.70
2019,11,02,10,58,33.50
2019,11,02,10,59,33.00
2019,11,02,11,00,33.00
2019,11,02,11,01,33.50
2019,11,02,11,02,35.00
2019,11,02,11,03,35.00
2019,11,02,11,04,35.00
2019,11,02,11,05,35.00
2019,11,02,11,06,36.70
2019,11,02,11,07,37.00
2019,11,02,11,08,37.00
2019,11,02,11,09,37.00
2019,11,02,11,10,38.10
2019,11,02,11,11,39.00
2019,11,02,11,12,39.00
2019,11,02,11,13,39.90
2019,11,02,11,14,42.20
2019,11,02,11,15,44.50
2019,11,02,11,16,46.00
2019,11,02,11,17,47.60
2019,11,02,11,18,54.80
2019,11,02,11,19,64.80
2019,11,02,11,20,60.80
2019,11,02,11,21,71.40
2019,11,02,11,22,86.50
2019,11,02,11,23,85.20
2019,11,02,11,24,84.60
2019,11,02,11,25,84.80
2019,11,02,11,26,83.00
2019,11,02,11,27,81.20
2019,11,02,11,28,83.10
2019,11,02,11,29,84.50
2019,11,02,11,30,87.60
2019,11,02,11,31,89.00
2019,11,02,11,32,89.30
2019,11,02,11,33,90.00
2019,11,02,11,34,86.20
2019,11,02,11,35,80.60
2019,11,02,11,36,76.20
2019,11,02,11,37,73.20
2019,11,02,11,38,70.40
2019,11,02,11,39,65.10
2019,11,02,11,40,55.50
2019,11,02,11,41,49.40
2019,11,02,11,42,54.00
2019,11,02,11,43,52.70
2019,11,02,11,44,46.20
2019,11,02,11,45,42.00
2019,11,02,11,46,43.30
2019,11,02,11,47,40.20
2019,11,02,11,48,39.00
2019,11,02,11,49,46.10
2019,11,02,11,50,47.50
2019,11,02,11,51,54.10
2019,11,02,11,52,67.00
2019,11,02,11,53,68.90
2019,11,02,11,54,64.00
2019,11,02,11,55,60.30
2019,11,02,11,56,55.20
2019,11,02,11,57,51.80
2019,11,02,11,58,58.40
2019,11,02,11,59,50.80
2019,11,02,12,00,53.70
2019,11,02,12,01,68.90
2019,11,02,12,02,64.30
2019,11,02,12,03,53.90
2019,11,02,12,04,54.30
2019,11,02,12,05,58.00
2019,11,02,12,06,58.00
2019,11,02,12,07,56.70
2019,11,02,12,08,54.50
2019,11,02,12,09,53.10
2019,11,02,12,10,53.40
2019,11,02,12,11,56.00
2019,11,02,12,12,54.90
2019,11,02,12,13,53.00
2019,11,02,12,14,53.00
2019,11,02,12,15,51.50
2019,11,02,12,16,51.00
2019,11,02,12,17,53.00
2019,11,02,12,18,52.50
2019,11,02,12,19,51.00
2019,11,02,12,20,51.00
2019,11,02,12,21,54.10
2019,11,02,12,22,57.50
2019,11,02,12,23,58.00
2019,11,02,12,24,58.00
2019,11,02,12,25,57.50
2019,11,02,12,26,56.00
2019,11,02,12,27,61.70
2019,11,02,12,28,72.80
2019,11,02,12,29,74.50
2019,11,02,12,30,64.20
2019,11,02,12,31,57.40
2019,11,02,12,32,54.00
2019,11,02,12,33,57.30
2019,11,02,12,34,62.50
2019,11,02,12,35,57.00
2019,11,02,12,36,53.20
2019,11,02,12,37,65.40
2019,11,02,12,38,74.70
2019,11,02,12,39,63.30
2019,11,02,12,40,56.20
2019,11,02,12,41,61.00
2019,11,02,12,42,63.90
2019,11,02,12,43,68.10
2019,11,02,12,44,84.20
2019,11,02,12,45,86.30
2019,11,02,12,46,87.50
2019,11,02,12,47,87.90
2019,11,02,12,48,97.50
2019,11,02,12,49,104.60
2019,11,02,12,50,96.00
2019,11,02,12,51,93.30
2019,11,02,12,52,103.60
2019,11,02,12,53,107.80
2019,11,02,12,54,75.90
2019,11,02,12,55,67.60
2019,11,02,12,56,82.80
2019,11,02,12,57,69.20
2019,11,02,12,58,86.90
2019,11,02,12,59,74.40
2019,11,02,13,00,78.10
2019,11,02,13,01,94.70
2019,11,02,13,02,131.00
2019,11,02,13,03,127.60
2019,11,02,13,04,109.80
2019,11,02,13,05,86.60
2019,11,02,13,06,75.90
2019,11,02,13,07,67.80
2019,11,02,13,08,67.00
2019,11,02,13,09,56.50
2019,11,02,13,10,51.00
2019,11,02,13,11,49.40
2019,11,02,13,12,52.60
2019,11,02,13,13,59.00
2019,11,02,13,14,65.50
2019,11,02,13,15,64.20
2019,11,02,13,16,56.90
2019,11,02,13,17,58.90
2019,11,02,13,18,81.50
2019,11,02,13,19,90.70
2019,11,02,13,20,86.90
2019,11,02,13,21,108.80
2019,11,02,13,22,127.10
2019,11,02,13,23,125.00
2019,11,02,13,24,94.00
2019,11,02,13,25,78.00
2019,11,02,13,26,80.60
2019,11,02,13,27,75.00
2019,11,02,13,28,61.70
2019,11,02,13,29,57.30
2019,11,02,13,30,57.00
2019,11,02,13,31,55.60
2019,11,02,13,32,54.00
2019,11,02,13,33,54.00
2019,11,02,13,34,56.30
2019,11,02,13,35,58.00
2019,11,02,13,36,62.60
2019,11,02,13,37,79.00
2019,11,02,13,38,97.00
2019,11,02,13,39,111.30
2019,11,02,13,40,132.70
2019,11,02,13,41,140.40
2019,11,02,13,42,90.40
2019,11,02,13,43,76.40
2019,11,02,13,44,73.00
2019,11,02,13,45,66.90
2019,11,02,13,46,63.00
2019,11,02,13,47,66.60
2019,11,02,13,48,69.40
2019,11,02,13,49,65.00
2019,11,02,13,50,65.00
2019,11,02,13,51,63.40
2019,11,02,13,52,56.90
2019,11,02,13,53,53.20
2019,11,02,13,54,53.90
2019,11,02,13,55,53.00
2019,11,02,13,56,53.30
2019,11,02,13,57,57.20
2019,11,02,13,58,61.50
2019,11,02,13,59,61.30
2019,11,02,14,00,59.00
2019,11,02,14,01,56.20
2019,11,02,14,02,57.60
2019,11,02,14,03,55.00
2019,11,02,14,04,58.00
2019,11,02,14,05,60.10
2019,11,02,14,06,62.00
2019,11,02,14,07,59.00
2019,11,02,14,08,54.40
2019,11,02,14,09,58.00
2019,11,02,14,10,57.50
2019,11,02,14,11,56.00
2019,11,02,14,12,56.00
2019,11,02,14,13,54.70
2019,11,02,14,14,55.50
2019,11,02,14,15,55.90
2019,11,02,14,16,54.00
2019,11,02,14,17,55.00
2019,11,02,14,18,58.00
2019,11,02,14,19,59.00
2019,11,02,14,20,63.20
2019,11,02,14,21,68.80
2019,11,02,14,22,76.20
2019,11,02,14,23,78.70
2019,11,02,14,24,75.00
2019,11,02,14,25,72.00
2019,11,02,14,26,71.00
2019,11,02,14,27,73.90
2019,11,02,14,28,76.00
2019,11,02,14,29,74.20
2019,11,02,14,30,77.00
2019,11,02,14,31,75.80
2019,11,02,14,32,72.00
2019,11,02,14,33,72.00
2019,11,02,14,34,72.00
2019,11,02,14,35,72.00
2019,11,02,14,36,72.00
2019,11,02,14,37,75.40
2019,11,02,14,38,72.60
2019,11,02,14,39,74.70
2019,11,02,14,40,75.00
2019,11,02,14,41,72.70
2019,11,02,14,42,69.80
2019,11,02,14,43,69.00
2019,11,02,14,44,69.90
2019,11,02,14,45,69.30
2019,11,02,14,46,69.60
2019,11,02,14,47,68.00
2019,11,02,14,48,65.80
2019,11,02,14,49,66.50
2019,11,02,14,50,65.20
2019,11,02,14,51,65.00
2019,11,02,14,52,65.00
2019,11,02,14,53,64.20
2019,11,02,14,54,63.00
2019,11,02,14,55,63.00
2019,11,02,14,56,63.00
2019,11,02,14,57,63.00
2019,11,02,14,58,63.00
2019,11,02,14,59,63.00
2019,11,02,15,00,63.00
2019,11,02,15,01,63.00
2019,11,02,15,02,64.30
2019,11,02,15,03,66.60
2019,11,02,15,04,67.00
2019,11,02,15,05,66.70
2019,11,02,15,06,66.00
2019,11,02,15,07,69.00
2019,11,02,15,08,68.00
2019,11,02,15,09,68.30
2019,11,02,15,10,69.00
2019,11,02,15,11,67.20
2019,11,02,15,12,67.00
2019,11,02,15,13,67.00
2019,11,02,15,14,67.00
2019,11,02,15,15,67.00
2019,11,02,15,16,65.70
2019,11,02,15,17,65.00
2019,11,02,15,18,63.20
2019,11,02,15,19,62.90
2019,11,02,15,20,62.00
2019,11,02,15,21,62.00
2019,11,02,15,22,61.00
2019,11,02,15,23,58.70
2019,11,02,15,24,59.60
2019,11,02,15,25,58.30
2019,11,02,15,26,58.30
2019,11,02,15,27,60.00
2019,11,02,15,28,59.30
2019,11,02,15,29,59.00
2019,11,02,15,30,60.00
2019,11,02,15,31,60.00
2019,11,02,15,32,60.10
2019,11,02,15,33,61.80
2019,11,02,15,34,59.50
2019,11,02,15,35,58.00
2019,11,02,15,36,58.00
2019,11,02,15,37,56.70
2019,11,02,15,38,54.40
2019,11,02,15,39,53.10
2019,11,02,15,40,53.00
2019,11,02,15,41,53.00
2019,11,02,15,42,52.20
2019,11,02,15,43,51.00
2019,11,02,15,44,49.70
2019,11,02,15,45,49.00
2019,11,02,15,46,49.00
2019,11,02,15,47,49.00
2019,11,02,15,48,49.00
2019,11,02,15,49,49.00
2019,11,02,15,50,49.00
2019,11,02,15,51,50.30
2019,11,02,15,52,52.50
2019,11,02,15,53,53.90
2019,11,02,15,54,54.30
2019,11,02,15,55,56.00
2019,11,02,15,56,56.70
2019,11,02,15,57,59.00
2019,11,02,15,58,60.00
2019,11,02,15,59,61.50
2019,11,02,16,00,62.90
2019,11,02,16,01,63.00
2019,11,02,16,02,63.00
2019,11,02,16,03,62.60
2019,11,02,16,04,62.00
2019,11,02,16,05,62.00
2019,11,02,16,06,62.00
2019,11,02,16,07,62.00
2019,11,02,16,08,62.00
2019,11,02,16,09,61.50
2019,11,02,16,10,60.00
2019,11,02,16,11,60.00
2019,11,02,16,12,60.00
2019,11,02,16,13,58.50
2019,11,02,16,14,58.00
2019,11,02,16,15,57.70
2019,11,02,16,16,56.00
2019,11,02,16,17,56.00
2019,11,02,16,18,55.00
2019,11,02,16,19,54.00
2019,11,02,16,20,54.00
2019,11,02,16,21,54.00
2019,11,02,16,22,54.00
2019,11,02,16,23,53.80
2019,11,02,16,24,53.00
2019,11,02,16,25,53.00
2019,11,02,16,26,51.70
2019,11,02,16,27,51.00
2019,11,02,16,28,49.30
2019,11,02,16,29,47.00
2019,11,02,16,30,46.70
2019,11,02,16,31,45.30
2019,11,02,16,32,44.00
2019,11,02,16,33,42.70
2019,11,02,16,34,40.50
2019,11,02,16,35,39.10
2019,11,02,16,36,37.00
2019,11,02,16,37,36.50
2019,11,02,16,38,34.30
2019,11,02,16,39,32.50
2019,11,02,16,40,32.00
2019,11,02,16,41,30.40
2019,11,02,16,42,30.00
2019,11,02,16,43,28.00
2019,11,02,16,44,28.00
2019,11,02,16,45,28.00
2019,11,02,16,46,28.00
2019,11,02,16,47,28.00
2019,11,02,16,48,28.00
2019,11,02,16,49,28.00
2019,11,02,16,50,28.00
2019,11,02,16,51,28.00
2019,11,02,16,52,28.00
2019,11,02,16,53,27.00
2019,11,02,16,54,26.00
2019,11,02,16,55,26.00
2019,11,02,16,56,26.00
2019,11,02,16,57,26.00
2019,11,02,16,58,26.00
2019,11,02,16,59,26.00
2019,11,02,17,00,26.00
2019,11,02,17,01,26.00
2019,11,02,17,02,26.00
2019,11,02,17,03,26.00
2019,11,02,17,04,25.00
2019,11,02,17,05,25.00
2019,11,02,17,06,25.00
2019,11,02,17,07,25.00
2019,11,02,17,08,23.70
2019,11,02,17,09,23.00
2019,11,02,17,10,21.20
2019,11,02,17,11,21.00
2019,11,02,17,12,20.50
2019,11,02,17,13,19.00
2019,11,02,17,14,19.00
2019,11,02,17,15,18.40
2019,11,02,17,16,18.00
2019,11,02,17,17,18.00
2019,11,02,17,18,16.00
2019,11,02,17,19,16.00
2019,11,02,17,20,15.20
2019,11,02,17,21,14.00
2019,11,02,17,22,14.00
2019,11,02,17,23,14.00
2019,11,02,17,24,14.00
2019,11,02,17,25,13.70
2019,11,02,17,26,12.00
2019,11,02,17,27,12.00
2019,11,02,17,28,12.00
2019,11,02,17,29,12.00
2019,11,02,17,30,12.00
2019,11,02,17,31,11.10
2019,11,02,17,32,11.00
2019,11,02,17,33,11.00
2019,11,02,17,34,11.00
2019,11,02,17,35,10.00
2019,11,02,17,36,9.00
2019,11,02,17,37,9.00
2019,11,02,17,38,9.00
2019,11,02,17,39,7.00
2019,11,02,17,40,7.00